Home > Weather > Cartagena > Past weeks

Flag for Colombia Weather for the Past 2 Weeks in Cartagena, Colombia

Now
79 °F

Fog.


Feels Like: 82 °F
Forecast: 78 / 87 °F
Wind: 12 mph from Northeast

Location: Cartagena / Rafael Nunez

Current Time: Feb 6, 2016 at 2:58:17 AM

Latest Report: Feb 6, 2016 at 2:00 AM


Visibility: 10 mi

Pressure: 29.85 "Hg

Humidity: 79%

Dew point: 72 °F

Location of CartagenaLocation

Historic Weather in Cartagena — Graph

°F

Cartagena Temperature Yesterday

Maximum temperature yesterday: 90 °F (at 11:00 AM)
Minimum temperature yesterday: 79 °F (at 3:00 AM)
Average temperature yesterday: 83 °F

High & Low Weather Summary for the Past Weeks

 TemperatureHumidityPressure
High90 °F (Jan 22, 11:00 AM)100% (Jan 30, 8:00 AM)30.35 "Hg (Jan 30, 8:00 AM)
Low41 °F (Feb 4, 3:00 AM)55% (Feb 4, 11:00 AM)29.71 "Hg (Feb 3, 4:00 PM)
Average82 °F77%29.83 "Hg
* Reported Jan 22 2:00 AM — Feb 6 2:00 AM, Cartagena, Weather by CustomWeather, © 2016

Note: Actual official high and low records may vary slightly from our data, if they occured in-between our weather recording intervals... More about our weather records

Advertising

Cartagena Weather History for the Previous 24 Hours

 ConditionsComfort  
Time TempWeatherWind HumidityBarometerVisibility
2:00 AM
Sat, Feb 6
52 °FFog.2 mph100%30.35 "Hg2 mi
1:00 AM79 °FClear.13 mph79%29.86 "Hg10 mi
12:00 AM79 °FClear.9 mph79%29.88 "Hg10 mi
11:00 PM
Fri, Feb 5
79 °FClear.9 mph79%29.89 "Hg10 mi
10:00 PM81 °FClear.10 mph70%29.89 "Hg10 mi
9:00 PM81 °FClear.10 mph70%29.87 "Hg10 mi
8:00 PM81 °FClear.13 mph74%29.85 "Hg10 mi
7:00 PM81 °FClear.15 mph70%29.83 "Hg10 mi
6:00 PM82 °FSunny.12 mph66%29.82 "Hg10 mi
5:00 PM84 °FSunny.15 mph66%29.80 "Hg10 mi
4:00 PM88 °FPassing clouds.15 mph59%29.79 "HgN/A
3:00 PM90 °FPassing clouds.13 mph55%29.80 "HgN/A
2:00 PM88 °FPassing clouds.23 mph66%29.82 "HgN/A
1:00 PM88 °FPassing clouds.22 mph66%29.85 "HgN/A
12:00 PM88 °FPassing clouds.15 mph66%29.87 "HgN/A
11:00 AM90 °FPassing clouds.2 mph59%29.89 "HgN/A
10:00 AM86 °FSunny.3 mph62%29.90 "Hg10 mi
9:00 AM84 °FSunny.9 mph66%29.89 "Hg10 mi
8:00 AM81 °FClear.9 mph74%29.88 "Hg5 mi
7:00 AM79 °FScattered clouds.13 mph79%29.87 "HgN/A
6:00 AM79 °FPassing clouds.8 mph84%29.83 "HgN/A
5:00 AM79 °FPassing clouds.15 mph84%29.83 "HgN/A
4:00 AM79 °FPassing clouds.12 mph84%29.82 "HgN/A
3:00 AM79 °FPassing clouds.14 mph79%29.81 "HgN/A
2:00 AM81 °FPassing clouds.13 mph79%29.82 "HgN/A
Weather by CustomWeather, © 2016

See weather overviewHow to use our weather pages